Time,TemperatureF,DewpointF,PressureIn,WindDirection,WindDirectionDegrees,WindSpeedMPH,WindSpeedGustMPH,Humidity,HourlyPrecipIn,Conditions,Clouds,dailyrainin,SoftwareType,DateUTC
2013-03-04 00:01:00,25.0,9.0,28.95,ENE,67,0.0,0.0,50,0.00,,,0.04,,2013-03-04 05:01:00,
2013-03-04 00:11:00,25.0,9.0,28.95,ENE,67,0.0,0.0,50,0.00,,,0.04,,2013-03-04 05:11:00,
2013-03-04 00:22:00,25.0,9.0,28.95,ENE,67,0.0,0.0,51,0.00,,,0.04,,2013-03-04 05:22:00,
2013-03-04 00:32:00,25.0,9.0,28.95,ENE,67,0.0,0.0,51,0.00,,,0.04,,2013-03-04 05:32:00,
2013-03-04 00:42:00,25.0,9.0,28.95,ENE,67,0.0,0.0,51,0.00,,,0.04,,2013-03-04 05:42:00,
2013-03-04 00:52:00,25.0,9.0,28.95,ENE,67,0.0,0.0,51,0.00,,,0.04,,2013-03-04 05:52:00,
2013-03-04 01:02:00,25.0,9.0,28.95,ENE,67,0.0,0.0,51,0.00,,,0.04,,2013-03-04 06:02:00,
2013-03-04 01:11:00,25.0,9.0,28.95,ENE,67,0.0,0.0,51,0.00,,,0.04,,2013-03-04 06:11:00,
2013-03-04 01:22:00,25.0,9.0,28.95,ENE,67,0.0,0.0,51,0.00,,,0.04,,2013-03-04 06:22:00,
2013-03-04 01:32:00,25.0,10.0,28.98,ENE,67,0.0,0.0,52,0.00,,,0.04,,2013-03-04 06:32:00,
2013-03-04 01:42:00,25.0,10.0,28.98,ENE,67,0.0,0.0,52,0.00,,,0.04,,2013-03-04 06:42:00,
2013-03-04 01:51:00,25.0,10.0,28.95,ENE,67,0.0,0.0,52,0.00,,,0.04,,2013-03-04 06:51:00,
2013-03-04 02:02:00,25.0,10.0,28.99,ENE,67,0.0,0.0,53,0.00,,,0.04,,2013-03-04 07:02:00,
2013-03-04 02:11:00,25.0,10.0,28.99,ENE,67,0.0,0.0,53,0.00,,,0.04,,2013-03-04 07:11:00,
2013-03-04 02:22:00,25.0,10.0,28.99,ENE,67,0.0,0.0,53,0.00,,,0.04,,2013-03-04 07:22:00,
2013-03-04 02:32:00,25.0,11.0,28.98,ENE,67,0.0,0.0,54,0.00,,,0.04,,2013-03-04 07:32:00,
2013-03-04 02:42:00,25.0,11.0,28.98,ENE,67,0.0,0.0,54,0.00,,,0.04,,2013-03-04 07:42:00,
2013-03-04 02:52:00,25.0,11.0,28.98,ENE,67,0.0,0.0,54,0.00,,,0.04,,2013-03-04 07:52:00,
2013-03-04 03:02:00,24.0,10.0,28.98,ENE,67,0.0,0.0,54,0.00,,,0.04,,2013-03-04 08:02:00,
2013-03-04 03:12:00,24.0,10.0,28.98,ENE,67,0.0,0.0,54,0.00,,,0.04,,2013-03-04 08:12:00,
2013-03-04 03:22:00,24.0,10.0,28.98,ENE,67,0.0,0.0,55,0.00,,,0.04,,2013-03-04 08:22:00,
2013-03-04 03:32:00,24.0,10.0,28.98,ENE,67,0.0,0.0,55,0.00,,,0.04,,2013-03-04 08:32:00,
2013-03-04 03:42:00,24.0,10.0,28.98,ENE,67,0.0,0.0,55,0.00,,,0.04,,2013-03-04 08:42:00,
2013-03-04 03:52:00,24.0,11.0,28.98,ENE,67,0.0,0.0,56,0.00,,,0.04,,2013-03-04 08:52:00,
2013-03-04 04:02:00,23.0,10.0,28.98,ENE,67,0.0,0.0,57,0.00,,,0.04,,2013-03-04 09:02:00,
2013-03-04 04:11:00,23.0,10.0,28.98,ENE,67,0.0,0.0,57,0.00,,,0.04,,2013-03-04 09:11:00,
2013-03-04 04:22:00,23.0,10.0,28.98,ENE,67,0.0,0.0,57,0.00,,,0.04,,2013-03-04 09:22:00,
2013-03-04 04:32:00,22.0,9.0,28.98,ENE,67,0.0,0.0,57,0.00,,,0.04,,2013-03-04 09:32:00,
2013-03-04 04:42:00,22.0,9.0,28.98,ENE,67,0.0,0.0,57,0.00,,,0.04,,2013-03-04 09:42:00,
2013-03-04 04:52:00,21.0,9.0,28.97,ENE,67,0.0,0.0,58,0.00,,,0.04,,2013-03-04 09:52:00,
2013-03-04 05:01:00,20.0,8.0,28.97,ENE,67,0.0,0.0,59,0.00,,,0.04,,2013-03-04 10:01:00,
2013-03-04 05:11:00,20.0,8.0,28.97,ENE,67,0.0,0.0,59,0.00,,,0.04,,2013-03-04 10:11:00,
2013-03-04 05:22:00,20.0,9.0,28.97,ENE,67,0.0,0.0,61,0.00,,,0.04,,2013-03-04 10:22:00,
2013-03-04 05:32:00,19.0,8.0,29.00,ENE,67,0.0,0.0,62,0.00,,,0.04,,2013-03-04 10:32:00,
2013-03-04 05:42:00,19.0,8.0,29.00,ENE,67,0.0,0.0,62,0.00,,,0.04,,2013-03-04 10:42:00,
2013-03-04 05:52:00,19.0,9.0,28.97,ENE,67,0.0,0.0,63,0.00,,,0.04,,2013-03-04 10:52:00,
2013-03-04 06:02:00,19.0,9.0,28.97,ENE,67,0.0,0.0,64,0.00,,,0.04,,2013-03-04 11:02:00,
2013-03-04 06:11:00,19.0,9.0,28.97,ENE,67,0.0,0.0,64,0.00,,,0.04,,2013-03-04 11:11:00,
2013-03-04 06:22:00,19.0,9.0,29.00,ENE,67,0.0,0.0,65,0.00,,,0.04,,2013-03-04 11:22:00,
2013-03-04 06:32:00,18.0,9.0,29.00,ENE,67,0.0,0.0,66,0.00,,,0.04,,2013-03-04 11:32:00,
2013-03-04 06:42:00,18.0,9.0,29.00,ENE,67,0.0,0.0,66,0.00,,,0.04,,2013-03-04 11:42:00,
2013-03-04 06:52:00,18.0,9.0,29.03,ENE,67,0.0,0.0,66,0.00,,,0.04,,2013-03-04 11:52:00,
2013-03-04 07:02:00,18.0,9.0,29.03,ENE,67,0.0,0.0,66,0.00,,,0.04,,2013-03-04 12:02:00,
2013-03-04 07:11:00,18.0,9.0,29.03,ENE,67,0.0,0.0,66,0.00,,,0.04,,2013-03-04 12:11:00,
2013-03-04 07:22:00,18.0,9.0,29.03,ENE,67,0.0,0.0,67,0.00,,,0.04,,2013-03-04 12:22:00,
2013-03-04 07:32:00,18.0,9.0,29.03,ENE,67,0.0,0.0,68,0.00,,,0.04,,2013-03-04 12:32:00,
2013-03-04 07:43:00,18.0,9.0,29.03,ENE,67,0.0,0.0,68,0.00,,,0.04,,2013-03-04 12:43:00,
2013-03-04 07:53:00,18.0,9.0,29.03,ENE,67,0.0,0.0,68,0.00,,,0.04,,2013-03-04 12:53:00,
2013-03-04 08:02:00,20.0,11.0,29.06,ENE,67,0.0,0.0,69,0.00,,,0.04,,2013-03-04 13:02:00,
2013-03-04 08:11:00,20.0,11.0,29.06,ENE,67,0.0,0.0,69,0.00,,,0.04,,2013-03-04 13:11:00,
2013-03-04 08:22:00,25.0,15.0,29.07,ENE,67,0.0,0.0,65,0.00,,,0.04,,2013-03-04 13:22:00,
2013-03-04 08:32:00,26.0,15.0,29.07,ENE,67,0.0,0.0,62,0.00,,,0.04,,2013-03-04 13:32:00,
2013-03-04 08:42:00,26.0,15.0,29.07,ENE,67,0.0,0.0,62,0.00,,,0.04,,2013-03-04 13:42:00,
2013-03-04 08:52:00,27.0,13.0,29.07,ENE,67,0.0,0.0,56,0.00,,,0.04,,2013-03-04 13:52:00,
2013-03-04 09:01:00,28.0,13.0,29.07,ENE,67,0.0,0.0,53,0.00,,,0.04,,2013-03-04 14:01:00,
2013-03-04 09:12:00,28.0,13.0,29.07,ENE,67,0.0,0.0,53,0.00,,,0.04,,2013-03-04 14:12:00,
2013-03-04 09:22:00,31.0,15.0,29.07,ENE,67,0.0,0.0,51,0.00,,,0.04,,2013-03-04 14:22:00,
2013-03-04 09:32:00,31.0,14.0,29.07,ENE,67,0.0,0.0,48,0.00,,,0.04,,2013-03-04 14:32:00,
2013-03-04 09:42:00,31.0,14.0,29.07,ENE,67,0.0,0.0,48,0.00,,,0.04,,2013-03-04 14:42:00,
2013-03-04 09:52:00,32.0,12.0,29.07,ENE,67,0.0,0.0,42,0.00,,,0.04,,2013-03-04 14:52:00,
2013-03-04 10:02:00,33.0,12.0,29.08,ENE,67,0.0,0.0,42,0.00,,,0.04,,2013-03-04 15:02:00,
2013-03-04 10:11:00,33.0,12.0,29.08,ENE,67,0.0,0.0,42,0.00,,,0.04,,2013-03-04 15:11:00,
2013-03-04 10:22:00,34.0,12.0,29.08,ENE,67,0.0,0.0,40,0.00,,,0.04,,2013-03-04 15:22:00,
2013-03-04 10:32:00,34.0,12.0,29.08,ENE,67,0.0,0.0,40,0.00,,,0.04,,2013-03-04 15:32:00,
2013-03-04 10:42:00,34.0,12.0,29.08,ENE,67,0.0,0.0,40,0.00,,,0.04,,2013-03-04 15:42:00,
2013-03-04 10:52:00,35.0,13.0,29.08,ENE,67,0.0,0.0,40,0.00,,,0.04,,2013-03-04 15:52:00,
2013-03-04 11:02:00,36.0,13.0,29.08,ENE,67,0.0,0.0,39,0.00,,,0.04,,2013-03-04 16:02:00,
2013-03-04 11:11:00,36.0,13.0,29.08,ENE,67,0.0,0.0,39,0.00,,,0.04,,2013-03-04 16:11:00,
2013-03-04 11:21:00,37.0,12.0,29.08,ENE,67,0.0,0.0,35,0.00,,,0.04,,2013-03-04 16:21:00,
2013-03-04 11:32:00,37.0,11.0,29.08,ENE,67,0.0,0.0,34,0.00,,,0.04,,2013-03-04 16:32:00,
2013-03-04 11:42:00,37.0,11.0,29.08,ENE,67,0.0,0.0,34,0.00,,,0.04,,2013-03-04 16:42:00,
2013-03-04 11:52:00,38.0,13.0,29.05,ENE,67,0.0,0.0,35,0.00,,,0.04,,2013-03-04 16:52:00,
2013-03-04 12:02:00,39.0,12.0,29.05,ENE,67,0.0,0.0,32,0.00,,,0.04,,2013-03-04 17:02:00,
2013-03-04 12:11:00,39.0,12.0,29.05,ENE,67,0.0,0.0,32,0.00,,,0.04,,2013-03-04 17:11:00,
2013-03-04 12:22:00,38.0,11.0,29.08,ENE,67,0.0,0.0,33,0.00,,,0.04,,2013-03-04 17:22:00,
2013-03-04 12:32:00,40.0,13.0,29.08,ENE,67,0.0,0.0,32,0.00,,,0.04,,2013-03-04 17:32:00,
2013-03-04 12:42:00,40.0,13.0,29.08,ENE,67,0.0,0.0,32,0.00,,,0.04,,2013-03-04 17:42:00,
2013-03-04 12:52:00,40.0,12.0,29.05,ENE,67,0.0,0.0,31,0.00,,,0.04,,2013-03-04 17:52:00,
2013-03-04 13:02:00,41.0,13.0,29.05,ENE,67,0.0,0.0,31,0.00,,,0.04,,2013-03-04 18:02:00,
2013-03-04 13:11:00,41.0,13.0,29.05,ENE,67,0.0,0.0,31,0.00,,,0.04,,2013-03-04 18:11:00,
2013-03-04 13:22:00,42.0,14.0,29.05,ENE,67,0.0,0.0,31,0.00,,,0.00,,2013-03-04 18:22:00,
2013-03-04 13:32:00,43.0,14.0,29.05,ENE,67,0.0,0.0,31,0.00,,,0.00,,2013-03-04 18:32:00,
2013-03-04 13:42:00,43.0,14.0,29.05,ENE,67,0.0,0.0,31,0.00,,,0.00,,2013-03-04 18:42:00,
2013-03-04 13:52:00,44.0,15.0,29.05,ENE,67,0.0,0.0,30,0.00,,,0.00,,2013-03-04 18:52:00,
2013-03-04 14:02:00,44.0,14.0,29.05,ENE,67,0.0,0.0,29,0.00,,,0.00,,2013-03-04 19:02:00,
2013-03-04 14:12:00,44.0,14.0,29.05,ENE,67,0.0,0.0,29,0.00,,,0.00,,2013-03-04 19:12:00,
2013-03-04 14:22:00,42.0,13.0,29.05,ENE,67,0.0,0.0,30,0.00,,,0.00,,2013-03-04 19:22:00,
2013-03-04 14:32:00,43.0,13.0,29.03,ENE,67,0.0,0.0,29,0.00,,,0.00,,2013-03-04 19:32:00,
2013-03-04 14:42:00,43.0,13.0,29.03,ENE,67,0.0,0.0,29,0.00,,,0.00,,2013-03-04 19:42:00,
2013-03-04 14:52:00,44.0,14.0,29.03,ENE,67,0.0,0.0,29,0.00,,,0.00,,2013-03-04 19:52:00,
2013-03-04 15:02:00,44.0,13.0,29.03,ENE,67,0.0,0.0,28,0.00,,,0.00,,2013-03-04 20:02:00,
2013-03-04 15:11:00,44.0,13.0,29.03,ENE,67,0.0,0.0,28,0.00,,,0.00,,2013-03-04 20:11:00,
2013-03-04 15:22:00,45.0,15.0,29.03,ENE,67,0.0,0.0,29,0.00,,,0.00,,2013-03-04 20:22:00,
2013-03-04 15:32:00,44.0,14.0,29.03,ENE,67,0.0,0.0,29,0.00,,,0.00,,2013-03-04 20:32:00,
2013-03-04 15:42:00,44.0,14.0,29.03,ENE,67,0.0,0.0,29,0.00,,,0.00,,2013-03-04 20:42:00,
2013-03-04 15:53:00,43.0,13.0,29.03,ENE,67,0.0,0.0,29,0.00,,,0.00,,2013-03-04 20:53:00,
2013-03-04 16:02:00,43.0,13.0,29.02,ENE,67,0.0,0.0,29,0.00,,,0.00,,2013-03-04 21:02:00,
2013-03-04 16:12:00,43.0,13.0,29.02,ENE,67,0.0,0.0,29,0.00,,,0.00,,2013-03-04 21:12:00,
2013-03-04 16:22:00,43.0,13.0,29.02,ENE,67,0.0,0.0,29,0.00,,,0.00,,2013-03-04 21:22:00,
2013-03-04 16:32:00,43.0,13.0,29.02,ENE,67,0.0,0.0,29,0.00,,,0.00,,2013-03-04 21:32:00,
2013-03-04 16:42:00,43.0,13.0,29.02,ENE,67,0.0,0.0,29,0.00,,,0.00,,2013-03-04 21:42:00,
2013-03-04 16:53:00,42.0,12.0,29.02,ENE,67,0.0,0.0,29,0.00,,,0.00,,2013-03-04 21:53:00,
2013-03-04 17:02:00,42.0,13.0,29.02,ENE,67,0.0,0.0,30,0.00,,,0.00,,2013-03-04 22:02:00,
2013-03-04 17:12:00,42.0,13.0,29.02,ENE,67,0.0,0.0,30,0.00,,,0.00,,2013-03-04 22:12:00,
2013-03-04 17:22:00,41.0,12.0,29.02,ENE,67,0.0,0.0,30,0.00,,,0.00,,2013-03-04 22:22:00,
2013-03-04 17:32:00,40.0,11.0,28.99,ENE,67,0.0,0.0,30,0.00,,,0.00,,2013-03-04 22:32:00,
2013-03-04 17:42:00,40.0,11.0,28.99,ENE,67,0.0,0.0,30,0.00,,,0.00,,2013-03-04 22:42:00,
2013-03-04 17:52:00,38.0,10.0,29.01,ENE,67,0.0,0.0,31,0.00,,,0.00,,2013-03-04 22:52:00,
2013-03-04 18:02:00,38.0,10.0,29.01,ENE,67,0.0,0.0,31,0.00,,,0.00,,2013-03-04 23:02:00,
2013-03-04 18:11:00,38.0,10.0,29.01,ENE,67,0.0,0.0,31,0.00,,,0.00,,2013-03-04 23:11:00,
2013-03-04 18:22:00,36.0,10.0,29.01,ENE,67,0.0,0.0,33,0.00,,,0.00,,2013-03-04 23:22:00,
2013-03-04 18:32:00,35.0,9.0,29.01,ENE,67,0.0,0.0,34,0.00,,,0.00,,2013-03-04 23:32:00,
2013-03-04 18:42:00,35.0,9.0,29.01,ENE,67,0.0,0.0,34,0.00,,,0.00,,2013-03-04 23:42:00,
2013-03-04 18:52:00,34.0,11.0,28.98,ENE,67,0.0,0.0,37,0.00,,,0.00,,2013-03-04 23:52:00,
2013-03-04 19:02:00,33.0,11.0,28.98,ENE,67,0.0,0.0,39,0.00,,,0.00,,2013-03-05 00:02:00,
2013-03-04 19:12:00,33.0,11.0,28.98,ENE,67,0.0,0.0,39,0.00,,,0.00,,2013-03-05 00:12:00,
2013-03-04 19:22:00,32.0,11.0,29.01,ENE,67,0.0,0.0,41,0.00,,,0.00,,2013-03-05 00:22:00,
2013-03-04 19:32:00,31.0,10.0,29.01,ENE,67,0.0,0.0,41,0.00,,,0.00,,2013-03-05 00:32:00,
2013-03-04 19:42:00,31.0,10.0,29.01,ENE,67,0.0,0.0,41,0.00,,,0.00,,2013-03-05 00:42:00,
2013-03-04 19:52:00,30.0,10.0,29.00,ENE,67,0.0,0.0,43,0.00,,,0.00,,2013-03-05 00:52:00,
2013-03-04 20:02:00,30.0,10.0,29.00,ENE,67,0.0,0.0,43,0.00,,,0.00,,2013-03-05 01:02:00,
2013-03-04 20:12:00,30.0,10.0,29.00,ENE,67,0.0,0.0,43,0.00,,,0.00,,2013-03-05 01:12:00,
2013-03-04 20:22:00,28.0,9.0,29.01,ENE,67,0.0,0.0,45,0.00,,,0.00,,2013-03-05 01:22:00,
2013-03-04 20:32:00,28.0,10.0,29.01,ENE,67,0.0,0.0,47,0.00,,,0.00,,2013-03-05 01:32:00,
2013-03-04 20:42:00,28.0,10.0,29.01,ENE,67,0.0,0.0,47,0.00,,,0.00,,2013-03-05 01:42:00,
2013-03-04 20:52:00,28.0,11.0,29.01,ENE,67,0.0,0.0,49,0.00,,,0.00,,2013-03-05 01:52:00,
2013-03-04 21:01:00,28.0,11.0,29.01,ENE,67,0.0,0.0,49,0.00,,,0.00,,2013-03-05 02:01:00,
2013-03-04 21:11:00,28.0,11.0,29.01,ENE,67,0.0,0.0,49,0.00,,,0.00,,2013-03-05 02:11:00,
2013-03-04 21:22:00,27.0,11.0,29.01,ENE,67,0.0,0.0,51,0.00,,,0.00,,2013-03-05 02:22:00,
2013-03-04 21:32:00,27.0,13.0,29.01,ENE,67,0.0,0.0,54,0.00,,,0.00,,2013-03-05 02:32:00,
2013-03-04 21:42:00,27.0,13.0,29.01,ENE,67,0.0,0.0,54,0.00,,,0.00,,2013-03-05 02:42:00,
2013-03-04 21:52:00,26.0,12.0,29.02,ENE,67,0.0,0.0,54,0.00,,,0.00,,2013-03-05 02:52:00,
2013-03-04 22:02:00,26.0,12.0,29.02,ENE,67,0.0,0.0,56,0.00,,,0.00,,2013-03-05 03:02:00,
2013-03-04 22:12:00,26.0,12.0,29.02,ENE,67,0.0,0.0,56,0.00,,,0.00,,2013-03-05 03:12:00,
2013-03-04 22:22:00,27.0,13.0,29.02,ENE,67,0.0,0.0,56,0.00,,,0.00,,2013-03-05 03:22:00,
2013-03-04 22:32:00,26.0,13.0,29.02,ENE,67,0.0,0.0,58,0.00,,,0.00,,2013-03-05 03:32:00,
2013-03-04 22:42:00,26.0,13.0,29.02,ENE,67,0.0,0.0,58,0.00,,,0.00,,2013-03-05 03:42:00,
2013-03-04 22:52:00,26.0,13.0,29.02,ENE,67,0.0,0.0,58,0.00,,,0.00,,2013-03-05 03:52:00,
2013-03-04 23:02:00,26.0,14.0,29.02,ENE,67,0.0,0.0,59,0.00,,,0.00,,2013-03-05 04:02:00,
2013-03-04 23:12:00,26.0,14.0,29.02,ENE,67,0.0,0.0,59,0.00,,,0.00,,2013-03-05 04:12:00,
2013-03-04 23:22:00,26.0,14.0,29.02,ENE,67,0.0,0.0,59,0.00,,,0.00,,2013-03-05 04:22:00,
2013-03-04 23:32:00,26.0,14.0,29.02,ENE,67,0.0,0.0,60,0.00,,,0.00,,2013-03-05 04:32:00,
2013-03-04 23:42:00,26.0,14.0,29.02,ENE,67,0.0,0.0,60,0.00,,,0.00,,2013-03-05 04:42:00,
2013-03-04 23:52:00,25.0,13.0,29.02,ENE,67,0.0,0.0,60,0.00,,,0.00,,2013-03-05 04:52:00,